Weather History for Bentonville, AR

Change the Weather History Date:

Friday, August 23, 2013

  Actual Average Record
Temperature  
Mean Temperature 80 °F -  
Max Temperature 91 °F 88 °F 98 °F (1962)
Min Temperature 68 °F 64 °F 51 °F (1949)
Cooling Degree Days 14    
Growing Degree Days 30 (Base 50)    
Moisture  
Dew Point 66 °F    
Average Humidity 63    
Maximum Humidity 88    
Minimum Humidity 36    
Precipitation  
Precipitation 0.00 in - - ()
Sea Level Pressure  
Sea Level Pressure 30.08 in    
Wind  
Wind Speed 3 mph (ESE)    
Max Wind Speed 8 mph    
Max Gust Speed -    
Visibility 10 miles    
Events      
Averages and records for this station are not official NWS values.
T = Trace of Precipitation, MM = Missing Value Source: NWS Daily Summary

Daily Weather History Graph

Daily Weather History Graph

Search for Another Location

Airport:

Trip Planner

Search our weather history database for the weather conditions in past years. The results will help you decide how hot, cold, wet, or windy it might be!

Date:

Astronomy

Aug. 23, 2013 Rise Set
Actual Time 6:41 AM CDT 7:56 PM CDT
Civil Twilight 6:14 AM CDT 8:23 PM CDT
Nautical Twilight 5:42 AM CDT 8:55 PM CDT
Astronomical Twilight 5:09 AM CDT 9:28 PM CDT
Moon 9:23 PM CDT 9:30 AM CDT
Length of Visible Light 14h 08m
Length of Day
13h 15m
Waning Gibbous, 91% of the Moon is Illuminated
Aug 23
Waning Gibbous
Aug 28
Last Quarter
Sep 5
New
Sep 12
First Quarter
Sep 19
Full

Hourly Weather History & Observations

Time (CDT) Temp. Heat Index Dew Point Humidity Pressure Visibility Wind Dir Wind Speed Gust Speed Precip Events Conditions
12:15 AM 73.4 °F - 66.2 °F 78% 30.09 in 10.0 mi East 4.6 mph - N/A   Clear
12:35 AM 73.4 °F - 66.2 °F 78% 30.09 in 10.0 mi ESE 4.6 mph - N/A   Clear
12:56 AM 73.4 °F - 66.2 °F 78% 30.09 in 10.0 mi ESE 3.5 mph - N/A   Clear
1:15 AM 73.4 °F - 66.2 °F 78% 30.08 in 10.0 mi ESE 3.5 mph - N/A   Clear
1:35 AM 73.4 °F - 64.4 °F 73% 30.07 in 10.0 mi SE 3.5 mph - N/A   Clear
1:55 AM 71.6 °F - 64.4 °F 78% 30.07 in 10.0 mi SE 4.6 mph - N/A   Clear
2:15 AM 71.6 °F - 66.2 °F 83% 30.07 in 10.0 mi Calm Calm - N/A   Clear
2:35 AM 71.6 °F - 66.2 °F 83% 30.07 in 10.0 mi Calm Calm - N/A   Clear
2:55 AM 69.8 °F - 64.4 °F 83% 30.06 in 10.0 mi Calm Calm - N/A   Clear
3:15 AM 69.8 °F - 64.4 °F 83% 30.06 in 10.0 mi Calm Calm - N/A   Clear
3:35 AM 69.8 °F - 64.4 °F 83% 30.06 in 7.0 mi Calm Calm - N/A   Clear
3:55 AM 69.8 °F - 64.4 °F 83% 30.06 in 8.0 mi Calm Calm - N/A   Clear
4:15 AM 68.0 °F - 64.4 °F 88% 30.07 in 8.0 mi Calm Calm - N/A   Clear
4:35 AM 69.8 °F - 64.4 °F 83% 30.07 in 7.0 mi Calm Calm - N/A   Clear
5:16 AM 69.8 °F - 64.4 °F 83% 30.07 in 10.0 mi Calm Calm - N/A   Clear
5:35 AM 69.8 °F - 64.4 °F 83% 30.08 in 10.0 mi Calm Calm - N/A   Clear
5:55 AM 69.8 °F - 64.4 °F 83% 30.08 in 10.0 mi Calm Calm - N/A   Clear
6:15 AM 69.8 °F - 64.4 °F 83% 30.09 in 10.0 mi Calm Calm - N/A   Clear
6:35 AM 69.8 °F - 64.4 °F 83% 30.09 in 10.0 mi East 5.8 mph - N/A   Clear
6:55 AM 69.8 °F - 66.2 °F 88% 30.10 in 8.0 mi East 3.5 mph - N/A   Clear
7:15 AM 71.6 °F - 66.2 °F 83% 30.10 in 6.0 mi East 4.6 mph - N/A   Clear
7:35 AM 71.6 °F - 68.0 °F 88% 30.10 in 8.0 mi East 3.5 mph - N/A   Clear
7:55 AM 73.4 °F - 68.0 °F 83% 30.11 in 10.0 mi East 4.6 mph - N/A   Clear
8:35 AM 77.0 °F - 68.0 °F 74% 30.11 in 10.0 mi ESE 4.6 mph - N/A   Clear
8:55 AM 78.8 °F - 69.8 °F 74% 30.11 in 10.0 mi East 4.6 mph - N/A   Clear
9:15 AM 80.6 °F 83.9 °F 69.8 °F 70% 30.12 in 10.0 mi SE 3.5 mph - N/A   Clear
9:35 AM 80.6 °F 83.9 °F 69.8 °F 70% 30.12 in 10.0 mi SSE 3.5 mph - N/A   Clear
9:55 AM 82.4 °F 86.3 °F 69.8 °F 66% 30.12 in 10.0 mi South 3.5 mph - N/A   Clear
10:15 AM 82.4 °F 86.3 °F 69.8 °F 66% 30.12 in 10.0 mi SE 3.5 mph - N/A   Clear
10:35 AM 84.2 °F 87.3 °F 68.0 °F 58% 30.12 in 10.0 mi SSE 3.5 mph - N/A   Clear
10:55 AM 86.0 °F 90.4 °F 69.8 °F 58% 30.12 in 10.0 mi South 3.5 mph - N/A   Clear
11:15 AM 87.8 °F 91.4 °F 68.0 °F 52% 30.12 in 10.0 mi Calm Calm - N/A   Clear
11:35 AM 87.8 °F 90.4 °F 66.2 °F 49% 30.12 in 10.0 mi Calm Calm - N/A   Clear
11:55 AM 87.8 °F 90.4 °F 66.2 °F 49% 30.12 in 10.0 mi Calm Calm - N/A   Clear
12:16 PM 89.6 °F 92.2 °F 66.2 °F 46% 30.11 in 10.0 mi SE 4.6 mph - N/A   Clear
12:35 PM 87.8 °F 90.4 °F 66.2 °F 49% 30.10 in 10.0 mi East 3.5 mph - N/A   Scattered Clouds
12:55 PM 89.6 °F 92.2 °F 66.2 °F 46% 30.10 in 10.0 mi NE 4.6 mph - N/A   Mostly Cloudy
1:15 PM 89.6 °F 92.2 °F 66.2 °F 46% 30.09 in 10.0 mi North 4.6 mph - N/A   Scattered Clouds
1:35 PM 89.6 °F 92.2 °F 66.2 °F 46% 30.09 in 10.0 mi SE 4.6 mph - N/A   Partly Cloudy
1:55 PM 87.8 °F 89.4 °F 64.4 °F 46% 30.08 in 10.0 mi East 5.8 mph - N/A   Partly Cloudy
2:15 PM 89.6 °F 91.1 °F 64.4 °F 43% 30.07 in 10.0 mi North 4.6 mph - N/A   Clear
2:35 PM 87.8 °F 89.4 °F 64.4 °F 46% 30.07 in 10.0 mi ENE 5.8 mph - N/A   Scattered Clouds
2:55 PM 91.4 °F 93.2 °F 64.4 °F 41% 30.06 in 10.0 mi East 4.6 mph - N/A   Scattered Clouds
3:16 PM 89.6 °F 91.1 °F 64.4 °F 43% 30.06 in 10.0 mi NE 3.5 mph - N/A   Mostly Cloudy
3:35 PM 89.6 °F 92.2 °F 66.2 °F 46% 30.05 in 10.0 mi East 5.8 mph - N/A   Partly Cloudy
3:55 PM 91.4 °F 93.2 °F 64.4 °F 41% 30.05 in 10.0 mi East 8.1 mph - N/A   Clear
4:15 PM 91.4 °F 92.1 °F 62.6 °F 38% 30.04 in 10.0 mi ENE 8.1 mph - N/A   Clear
4:35 PM 89.6 °F 89.5 °F 60.8 °F 38% 30.04 in 10.0 mi ENE 8.1 mph - N/A   Clear
4:55 PM 89.6 °F 88.9 °F 59.0 °F 36% 30.05 in 10.0 mi East 5.8 mph - N/A   Clear
5:16 PM 91.4 °F 92.1 °F 62.6 °F 38% 30.05 in 10.0 mi ESE 5.8 mph - N/A   Clear
5:35 PM 89.6 °F 91.1 °F 64.4 °F 43% 30.05 in 10.0 mi SE 4.6 mph - N/A   Clear
5:55 PM 89.6 °F 92.2 °F 66.2 °F 46% 30.04 in 10.0 mi ESE 4.6 mph - N/A   Clear
6:35 PM 87.8 °F 89.4 °F 64.4 °F 46% 30.04 in 10.0 mi East 6.9 mph - N/A   Clear
6:55 PM 87.8 °F 89.4 °F 64.4 °F 46% 30.04 in 10.0 mi East 5.8 mph - N/A   Clear
7:15 PM 86.0 °F 87.3 °F 64.4 °F 48% 30.04 in 10.0 mi East 4.6 mph - N/A   Clear
7:35 PM 84.2 °F 85.6 °F 64.4 °F 51% 30.04 in 10.0 mi East 4.6 mph - N/A   Clear
7:55 PM 84.2 °F 85.6 °F 64.4 °F 51% 30.04 in 10.0 mi East 4.6 mph - N/A   Clear
8:15 PM 82.4 °F 83.9 °F 64.4 °F 54% 30.04 in 10.0 mi East 5.8 mph - N/A   Clear
8:35 PM 82.4 °F 83.9 °F 64.4 °F 54% 30.04 in 10.0 mi East 4.6 mph - N/A   Clear
8:55 PM 80.6 °F 82.7 °F 66.2 °F 61% 30.05 in 10.0 mi East 5.8 mph - N/A   Clear
9:15 PM 80.6 °F 82.7 °F 66.2 °F 61% 30.06 in 10.0 mi East 4.6 mph - N/A   Clear
9:35 PM 80.6 °F 83.2 °F 68.0 °F 65% 30.06 in 10.0 mi ESE 5.8 mph - N/A   Clear
9:55 PM 80.6 °F 82.7 °F 66.2 °F 61% 30.06 in 10.0 mi ESE 6.9 mph - N/A   Clear
10:15 PM 78.8 °F - 66.2 °F 65% 30.07 in 10.0 mi SE 5.8 mph - N/A   Clear
10:35 PM 78.8 °F - 66.2 °F 65% 30.07 in 10.0 mi SE 5.8 mph - N/A   Clear
10:55 PM 75.2 °F - 66.2 °F 73% 30.07 in 10.0 mi SE 5.8 mph - N/A   Clear
11:15 PM 75.2 °F - 66.2 °F 73% 30.07 in 10.0 mi SE 6.9 mph - N/A   Clear
11:36 PM 75.2 °F - 68.0 °F 78% 30.07 in 10.0 mi SE 5.8 mph - N/A   Clear
11:55 PM 75.2 °F - 66.2 °F 73% 30.08 in 10.0 mi SE 4.6 mph - N/A   Clear